Retour au catalogue

PEGASUS DEB

ActifPO
NORAD 24594·DEBRIS·🇺🇸 United States

Lancé May 19, 1994 depuis Vandenberg Space Force Base

Loading…

Prochains Passages (prochaines 24 heures)

TLE

FraisSource: Space-Track

Époque: Sep 14, 2026, 11:29 UTC

1 24594U 94029YW  26257.47915082  .00003268  00000-0  66471-3 0  9992
2 24594  81.4444 271.4906 0446218  66.8947 297.8603 14.12953948520250

Suivez PEGASUS DEB en temps réel avec AllMySat

Download on the App Store